Location: Aydie
(43.5695°N, 0.1043°W)
Time: 12:31:25
(UTC+00:00)

Cosmos 1484 Rocket - Pass Details

Date: 17 November 2025
Orbit: 443 x 473 km, 97.6° (Epoch: 06 December)

Event Time Altitude Azimuth Distance (km) Brightness Sun altitude
Rises 16:56:35 0° 172° (S) 2,491 6.4 -4.7°
Reaches altitude 10° 16:58:37 10° 175° (S) 1,625 5.5 -5.0°
Maximum altitude 17:02:06 67° 259° (WSW) 516 3.0 -5.6°
Drops below altitude 10° 17:05:38 10° 342° (NNW) 1,652 5.2 -6.2°
Sets 17:07:43 0° 345° (NNW) 2,538 6.2 -6.5°
